[[{"header":{"parameterUnit":"m.s-1","parameterCategory":1,"la1":30.2991,"la2":30.254,"lo1":-89.0895,"lo2":-89.0444,"dy":0.0017,"dx":0.0017,"nx":28,"ny":28,"refTime":"2023-11-03T21:00:00:Z","depth":0,"parameterNumber":2,"parameterNumberName":"U-component_of_WINDS"},"data":[0,0,0,0,0,0,0,0,0,0,0,0,0,0,0,0,0,0,0,0,0,0,0,0,0,0,0,0,0,0,0,0,0,0,0,0,0,0,0,0,0,0,0,0,0,0,0,0,0,0,0,0,0,0,0,0,0,0,-2.5485,-2.5486,0,-2.5636,-2.5638,-2.564,-2.5603,-2.56,-2.5597,-2.5594,-2.5753,-2.5759,-2.5766,0,0,0,0,0,0,0,0,0,0,0,0,0,-2.5165,-2.5171,-2.5485,-2.5487,-2.5488,-2.5636,-2.5638,-2.564,-2.5603,-2.56,-2.5596,-2.5593,-2.575,-2.5759,-2.5767,0,0,0,0,0,0,0,0,0,0,0,0,0,-2.5309,-2.5173,-2.5484,-2.5488,-2.5489,-2.5636,-2.5638,-2.5641,-2.5604,-2.5599,-2.5595,-2.5591,-2.5748,-2.5758,-2.5768,-2.5921,0,0,-2.58,-2.5805,0,0,0,0,0,0,0,0,-2.5301,-2.5321,-2.5485,-2.5488,-2.549,-2.5596,-2.5584,-2.5735,-2.5605,-2.5561,-2.5594,-2.5589,-2.5704,-2.5718,-2.5756,-2.5929,-2.5936,-2.5801,-2.5807,-2.5812,-2.5815,0,0,0,0,0,0,0,-2.5291,-2.5314,-2.5545,-2.5488,-2.5491,-2.5482,-2.5498,-2.5612,-2.5656,-2.5564,-2.5562,-2.558,-2.5705,-2.5746,-2.576,-2.5938,-2.5801,-2.581,-2.5816,-2.5821,-2.6244,-2.6249,0,0,0,0,0,0,-2.5279,-2.5306,-2.554,-2.5549,-2.5382,-2.5492,-2.5509,-2.5567,-2.5654,-2.5663,-2.5584,-2.5578,-2.5731,-2.5748,-2.5765,-2.5951,-2.5812,-2.5822,-2.5828,-2.6239,-2.6245,-2.6251,0,0,0,0,0,0,-2.5272,-2.53,-2.5534,-2.5427,-2.5456,-2.5502,-2.5567,-2.5572,-2.5613,-2.5669,-2.5677,-2.5618,-2.5728,-2.575,-2.5883,-2.5956,-2.5826,-2.5836,-2.6234,-2.6241,-2.6248,-2.6324,0,0,0,0,0,0,-2.5263,-2.5298,-2.5356,-2.5429,-2.5462,-2.5648,-2.5571,-2.5578,-2.5631,-2.5625,-2.5703,-2.5712,-2.5726,-2.5867,-2.5893,-2.5968,-2.5844,-2.6227,-2.6237,-2.6246,-2.6315,-2.6333,-2.6349,0,0,0,0,0,-2.5252,-2.5372,-2.5359,-2.5388,-2.5536,-2.5653,-2.5672,-2.5685,-2.5637,-2.5697,-2.5732,-2.571,-2.5943,-2.5881,-2.591,-2.5989,-2.6223,-2.6234,-2.6245,-2.6308,-2.633,-2.6348,0,0,0,0,0,0,-2.5308,-2.5382,-2.5368,-2.5515,-2.5578,-2.5646,-2.5722,-2.5707,-2.5785,-2.5777,-2.579,-2.5808,-2.5943,-2.5979,-2.5908,-2.6142,-2.6076,-2.6094,-2.6114,-2.6136,-2.6152,-2.6141,-2.5853,0,0,0,0,0,-2.5337,-2.5425,-2.5485,-2.5609,-2.5641,-2.5676,-2.5727,-2.5732,-2.5797,-2.5824,-2.5869,-2.5935,-2.6023,-2.6081,-2.6165,-2.632,-2.6337,-2.6388,-2.6405,-2.6418,-2.6434,-2.6519,-2.6543,-2.6288,-2.6287,-2.6287,0,0,-2.54,-2.545,-2.5506,-2.5622,-2.5671,-2.5763,-2.5699,-2.5798,-2.5867,-2.5839,-2.5967,-2.6002,-2.6076,-2.6221,-2.6286,-2.6255,-2.6508,-2.6433,-2.6443,-2.6451,-2.6533,-2.6557,-2.6579,-2.6295,-2.6294,-2.6293,0,0,-2.556,-2.5607,-2.5716,-2.5766,-2.584,-2.5862,-2.5888,-2.5958,-2.5981,-2.6108,-2.609,-2.6172,-2.6323,-2.6377,-2.6424,-2.6603,-2.6586,-2.663,-2.6718,-2.6801,-2.6821,-2.6839,-2.6904,-2.6927,-2.6645,-2.6645,-2.6645,0,-2.5628,-2.5765,-2.5774,-2.5875,-2.5927,-2.5905,-2.6016,-2.6064,-2.6163,-2.62,-2.6162,-2.6352,-2.64,-2.6557,-2.66,-2.6639,-2.667,-2.6622,-2.6817,-2.6835,-2.6852,-2.6914,-2.6939,-2.665,-2.665,-2.6649,-2.6649,0,-2.5845,-2.594,-2.6019,-2.6114,-2.6175,-2.628,-2.6306,-2.6367,-2.6365,-2.6391,-2.6522,-2.6579,-2.6674,-2.6711,-2.6711,-2.6868,-2.6847,-2.6813,-2.6747,-2.6881,-2.694,-2.6964,-2.6657,-2.6656,-2.6654,-2.6653,0,0,-2.6048,-2.6144,-2.6174,-2.6216,-2.6296,-2.637,-2.6475,-2.6567,-2.6619,-2.6687,-2.6776,-2.6904,-2.6874,-2.6927,-2.6933,-2.7005,-2.7145,-2.6963,-2.6965,-2.6996,-2.7322,-2.7348,-2.7376,-2.7133,-2.7137,-2.7141,-2.7317,0,-2.6216,-2.6399,-2.641,-2.6577,-2.6665,-2.6645,-2.6736,-2.6795,-2.6822,-2.6902,-2.6931,-2.7023,-2.6975,-2.7007,-2.7077,-2.7113,-2.7211,-2.71,-2.7217,-2.7221,-2.7201,-2.7406,-2.7434,-2.7597,-2.7339,-2.7343,-2.7346,0,-2.6438,-2.6511,-2.6687,-2.6754,-2.6791,-2.6873,-2.6958,-2.7034,-2.7101,-2.7115,-2.7174,-2.717,-2.7278,-2.7206,-2.7356,-2.7281,-2.7329,-2.7353,-2.736,-2.7373,-2.7293,-2.7426,-2.7649,-2.7674,-2.7382,-2.7379,-2.7377,0,-2.6569,-2.6712,-2.6836,-2.6873,-2.6954,-2.7012,-2.7048,-2.7111,-2.7165,-2.724,-2.7276,-2.7362,-2.741,-2.7477,-2.7496,-2.7442,-2.7646,-2.7576,-2.7662,-2.7662,-2.7708,-2.7705,-2.7944,-2.7736,-2.7736,-2.7735,-2.7735,0,-2.6757,-2.6866,-2.6896,-2.6972,-2.7093,-2.7104,-2.7224,-2.7257,-2.7312,-2.7395,-2.7382,-2.746,-2.748,-2.7562,-2.7577,-2.7699,-2.7721,-2.7737,-2.774,-2.7739,-2.7737,-2.7772,-2.7762,-2.7742,-2.774,-2.7739,-2.7738,0,-2.6925,-2.695,-2.7083,-2.7148,-2.7167,-2.7254,-2.731,-2.7383,-2.7408,-2.7513,-2.7538,-2.7577,-2.7673,-2.7698,-2.7813,-2.7823,-2.7968,-2.7959,-2.7945,-2.7945,-2.8031,-2.8023,-2.8301,-2.8339,-2.8105,-2.8108,-2.8109,0,-2.7045,-2.7127,-2.7201,-2.7255,-2.7294,-2.7381,-2.7436,-2.745,-2.7508,-2.759,-2.7654,-2.7748,-2.7824,-2.7978,-2.8018,-2.8106,-2.81,-2.8192,-2.8114,-2.811,-2.8103,-2.8099,-2.8108,-2.8207,-2.821,-2.8212,-2.8213,0,-2.7254,-2.7262,-2.7341,-2.7426,-2.7492,-2.7559,-2.7623,-2.7668,-2.7691,-2.7757,-2.7854,-2.7913,-2.803,-2.8124,-2.8212,-2.8251,-2.8237,-2.8237,-2.8262,-2.8263,-2.8252,-2.826,-2.7987,-2.8231,-2.8229,-2.8228,-2.8227,-2.8226,-2.7403,-2.7475,-2.7538,-2.7627,-2.7677,-2.7737,-2.7809,-2.7842,-2.7923,-2.8018,-2.8021,-2.8127,-2.8192,-2.8309,-2.8352,-2.8436,-2.8408,-2.8444,-2.8454,-2.8463,-2.8471,-2.8237,-2.8452,-2.8451,-2.8451,-2.8451,-2.845,0,-2.7613,-2.7652,-2.7733,-2.7823,-2.7893,-2.7872,-2.7941,-2.8002,-2.8095,-2.8156,-2.823,-2.8342,-2.8433,-2.8479,-2.8569,-2.8627,-2.8623,-2.8651,-2.8648,-2.8657,-2.8489,-2.8459,-2.8653,-2.8653,-2.8652,-2.8652,-2.8652,-2.8652,-2.773,-2.7852,-2.7867,-2.8014,-2.8052,-2.8155,-2.8197,-2.8252,-2.8301,-2.8426,-2.8501,-2.8529,-2.8584,-2.8678,-2.8761,-2.8772,-2.8806,-2.8838,-2.8846,-2.8689,-2.8669,-2.8649,-2.8621,-2.8845,-2.8845,-2.9006,-2.9008,-2.9009]},{"header":{"parameterUnit":"m.s-1","parameterCategory":1,"la1":30.2991,"la2":30.254,"lo1":-89.0895,"lo2":-89.0444,"dy":0.0017,"dx":0.0017,"nx":28,"ny":28,"refTime":"2023-11-03T21:00:00:Z","depth":0,"parameterNumber":3,"parameterNumberName":"V-component_of_WINDS"},"data":[0,0,0,0,0,0,0,0,0,0,0,0,0,0,0,0,0,0,0,0,0,0,0,0,0,0,0,0,0,0,0,0,0,0,0,0,0,0,0,0,0,0,0,0,0,0,0,0,0,0,0,0,0,0,0,0,0,0,-2.6948,-2.6948,0,-2.6942,-2.6942,-2.6942,-2.6906,-2.6905,-2.6904,-2.6904,-2.6897,-2.6898,-2.6898,0,0,0,0,0,0,0,0,0,0,0,0,0,-2.6926,-2.6926,-2.6948,-2.6948,-2.6948,-2.6942,-2.6942,-2.6942,-2.6906,-2.6905,-2.6904,-2.6903,-2.6897,-2.6898,-2.6899,0,0,0,0,0,0,0,0,0,0,0,0,0,-2.6929,-2.6926,-2.6948,-2.6929,-2.6927,-2.6942,-2.6942,-2.6942,-2.6906,-2.6905,-2.6904,-2.6903,-2.6897,-2.6898,-2.6899,-2.6931,0,0,-2.6902,-2.6902,0,0,0,0,0,0,0,0,-2.6929,-2.693,-2.6932,-2.6931,-2.6929,-2.6924,-2.6932,-2.6938,-2.6907,-2.6914,-2.6904,-2.6902,-2.6907,-2.6907,-2.6909,-2.6931,-2.693,-2.6902,-2.6902,-2.6903,-2.6903,0,0,0,0,0,0,0,-2.6929,-2.693,-2.6946,-2.6932,-2.693,-2.692,-2.692,-2.6933,-2.6918,-2.6914,-2.6911,-2.6911,-2.6906,-2.6908,-2.6908,-2.693,-2.6902,-2.6903,-2.6903,-2.6904,-2.6976,-2.6977,0,0,0,0,0,0,-2.6931,-2.693,-2.6946,-2.6945,-2.6926,-2.6922,-2.6921,-2.6927,-2.6918,-2.6915,-2.6912,-2.6909,-2.6907,-2.6907,-2.6908,-2.6944,-2.6903,-2.6904,-2.6904,-2.6975,-2.6976,-2.6978,0,0,0,0,0,0,-2.6931,-2.6933,-2.6946,-2.6937,-2.6938,-2.6924,-2.693,-2.6927,-2.6929,-2.6917,-2.6914,-2.6917,-2.6906,-2.6907,-2.6925,-2.6943,-2.6904,-2.6905,-2.6973,-2.6975,-2.6977,-2.7016,0,0,0,0,0,0,-2.6931,-2.6933,-2.6946,-2.6938,-2.6939,-2.6964,-2.6931,-2.6928,-2.6931,-2.6927,-2.6921,-2.6918,-2.6905,-2.6924,-2.6926,-2.6944,-2.6906,-2.6971,-2.6974,-2.6976,-2.7013,-2.7019,-2.7024,0,0,0,0,0,-2.693,-2.6957,-2.6947,-2.6949,-2.6954,-2.6965,-2.6965,-2.695,-2.6933,-2.6945,-2.6936,-2.6918,-2.6941,-2.6926,-2.6928,-2.6946,-2.697,-2.6973,-2.6976,-2.701,-2.7018,-2.7024,0,0,0,0,0,0,-2.6968,-2.6956,-2.6944,-2.697,-2.6969,-2.6959,-2.6974,-2.6958,-2.6962,-2.6958,-2.6939,-2.6937,-2.6958,-2.6954,-2.6938,-2.6976,-2.6952,-2.6956,-2.6978,-2.6985,-2.699,-2.699,-2.6906,0,0,0,0,0,-2.698,-2.699,-2.6979,-2.7002,-2.7002,-2.6988,-2.6992,-2.698,-2.6978,-2.6977,-2.6971,-2.6969,-2.6975,-2.698,-2.6985,-2.7013,-2.701,-2.7026,-2.7032,-2.7036,-2.7039,-2.7051,-2.7058,-2.6988,-2.6988,-2.6988,0,0,-2.7003,-2.6998,-2.7006,-2.701,-2.7007,-2.7017,-2.6988,-2.7,-2.7007,-2.6979,-2.6996,-2.6991,-2.6987,-2.701,-2.7019,-2.7007,-2.7058,-2.704,-2.7044,-2.7044,-2.7055,-2.7062,-2.7068,-2.699,-2.6989,-2.6989,0,0,-2.7051,-2.7049,-2.7067,-2.7066,-2.7062,-2.7052,-2.7057,-2.7049,-2.7045,-2.7061,-2.704,-2.7047,-2.706,-2.7057,-2.7058,-2.7104,-2.7087,-2.7106,-2.7135,-2.7147,-2.7153,-2.7158,-2.7172,-2.7178,-2.711,-2.711,-2.711,0,-2.7081,-2.7096,-2.7079,-2.7092,-2.7094,-2.7069,-2.7087,-2.7086,-2.7085,-2.7086,-2.7072,-2.7086,-2.7082,-2.7103,-2.7114,-2.7116,-2.7119,-2.7106,-2.7154,-2.7158,-2.7162,-2.7176,-2.7182,-2.7112,-2.7112,-2.7111,-2.7111,0,-2.7131,-2.7142,-2.7157,-2.7156,-2.7159,-2.7175,-2.716,-2.7166,-2.7153,-2.7145,-2.716,-2.7155,-2.7158,-2.7162,-2.7151,-2.7181,-2.7173,-2.7157,-2.7133,-2.7172,-2.7184,-2.7189,-2.7115,-2.7114,-2.7114,-2.7113,0,0,-2.7203,-2.7192,-2.7197,-2.7195,-2.719,-2.7197,-2.7211,-2.7214,-2.7218,-2.7218,-2.7228,-2.7239,-2.7223,-2.7224,-2.7212,-2.7223,-2.7257,-2.7205,-2.7204,-2.7213,-2.7288,-2.7299,-2.7305,-2.7246,-2.7247,-2.7248,-2.7287,0,-2.7247,-2.727,-2.7255,-2.728,-2.7289,-2.7265,-2.7277,-2.7274,-2.7266,-2.7272,-2.7263,-2.727,-2.725,-2.725,-2.726,-2.7251,-2.7271,-2.7248,-2.7254,-2.7254,-2.7254,-2.7312,-2.7324,-2.7361,-2.7292,-2.7293,-2.7294,0,-2.7302,-2.7303,-2.7329,-2.732,-2.7323,-2.7334,-2.7334,-2.7341,-2.7337,-2.733,-2.733,-2.7315,-2.7327,-2.7304,-2.7319,-2.7304,-2.7305,-2.7301,-2.7302,-2.7301,-2.7275,-2.731,-2.7373,-2.7378,-2.7301,-2.7301,-2.73,0,-2.7349,-2.7358,-2.7374,-2.7373,-2.7364,-2.7372,-2.7368,-2.7363,-2.7365,-2.7365,-2.7366,-2.7368,-2.7369,-2.7371,-2.7356,-2.7341,-2.7372,-2.7349,-2.7366,-2.7366,-2.7373,-2.7372,-2.7435,-2.7377,-2.7377,-2.7377,-2.7377,0,-2.7399,-2.7415,-2.7394,-2.7404,-2.7421,-2.7404,-2.7421,-2.7415,-2.741,-2.7417,-2.7398,-2.7405,-2.7386,-2.7391,-2.7379,-2.7393,-2.7394,-2.7388,-2.7384,-2.7388,-2.7389,-2.7388,-2.7384,-2.7378,-2.7378,-2.7378,-2.7377,0,-2.7454,-2.7441,-2.7456,-2.7446,-2.7443,-2.7456,-2.7447,-2.7455,-2.7446,-2.7455,-2.7456,-2.7442,-2.7447,-2.7432,-2.7435,-2.7427,-2.7446,-2.7439,-2.7448,-2.7445,-2.7462,-2.746,-2.7525,-2.7532,-2.7472,-2.7472,-2.7473,0,-2.7486,-2.7498,-2.7488,-2.7491,-2.7489,-2.7495,-2.7497,-2.748,-2.7482,-2.7478,-2.7486,-2.7489,-2.749,-2.7499,-2.7488,-2.749,-2.7482,-2.7505,-2.7482,-2.7485,-2.748,-2.7479,-2.7479,-2.7509,-2.7509,-2.751,-2.7511,0,-2.7543,-2.7536,-2.7539,-2.754,-2.7543,-2.7543,-2.7541,-2.7545,-2.7527,-2.7531,-2.7535,-2.7536,-2.7539,-2.7541,-2.754,-2.7536,-2.752,-2.7518,-2.7522,-2.7525,-2.7529,-2.7525,-2.7458,-2.7516,-2.7516,-2.7515,-2.7515,-2.7515,-2.7586,-2.7595,-2.7589,-2.7593,-2.759,-2.7589,-2.7595,-2.7587,-2.759,-2.759,-2.758,-2.7586,-2.7581,-2.7578,-2.7575,-2.7579,-2.7568,-2.7574,-2.7576,-2.7577,-2.7579,-2.753,-2.7579,-2.7579,-2.7579,-2.7579,-2.7578,0,-2.7641,-2.7636,-2.764,-2.7638,-2.7641,-2.7626,-2.7623,-2.7626,-2.7632,-2.7628,-2.763,-2.7634,-2.7636,-2.7626,-2.7626,-2.7632,-2.7624,-2.7632,-2.7631,-2.763,-2.7589,-2.7585,-2.7638,-2.7638,-2.7638,-2.7638,-2.7638,-2.7638,-2.767,-2.7683,-2.7675,-2.7686,-2.768,-2.7686,-2.7685,-2.7684,-2.768,-2.7686,-2.7688,-2.7681,-2.7674,-2.7674,-2.7675,-2.7672,-2.7672,-2.7682,-2.7676,-2.7639,-2.7633,-2.7627,-2.7623,-2.7683,-2.7683,-2.7716,-2.7716,-2.7716]}]]